VE3DVC Weather Reports


Display with metric or nautical units.
time (UTC)temp
F
wind
direction
speed
MPH
gust
MPH
rain 1hr
in
rain 24hr
in
rain mn
in
humidity
%
barometer
mb
20260504110534 51 0 0.0 3.0 0.00 0.00 0.00 73 1006.3
20260504080825 52 0 0.0 4.0 0.00 0.00 0.00 69 1006.7
20260504060157 51 0 0.0 4.0 0.00 0.00 0.00 71 1008.4
20260504050526 51 206 1.0 4.0 0.00 0.00 0.00 72 1008.9
20260504045326 52 0 0.0 4.0 0.00 0.00 0.00 71 1009.0
20260504043213 53 229 1.0 7.0 0.00 0.00 0.00 69 1009.0
20260504042013 53 0 0.0 4.0 0.00 0.00 0.00 66 1009.0
20260504040812 53 0 0.0 8.0 0.00 0.00 0.00 69 1009.0
20260504035613 53 0 0.0 6.0 0.00 0.00 0.00 70 1009.2
20260504034413 54 232 1.0 8.0 0.00 0.00 0.00 70 1009.2
20260504033213 54 149 1.0 5.0 0.00 0.00 0.00 69 1009.2
20260504032012 54 137 2.0 10.0 0.00 0.00 0.00 66 1009.2
20260504030812 55 197 1.0 7.0 0.00 0.00 0.00 64 1009.3
20260504025613 55 217 2.0 8.0 0.00 0.00 0.00 61 1009.3
20260504024413 55 239 1.0 8.0 0.00 0.00 0.00 57 1009.3
20260504023213 55 215 1.0 5.0 0.00 0.00 0.00 55 1009.3
20260504022012 55 221 1.0 5.0 0.00 0.00 0.00 55 1009.2
20260504020813 55 217 1.0 7.0 0.00 0.00 0.00 54 1009.2
20260504015613 54 230 2.0 7.0 0.00 0.00 0.00 55 1009.3
20260504014412 55 0 0.0 4.0 0.00 0.00 0.00 56 1009.2
20260504011855 55 221 2.0 8.0 0.00 0.00 0.00 55 1009.0
20260504010656 55 226 1.0 8.0 0.00 0.00 0.00 55 1009.1
20260504005455 56 234 2.0 6.0 0.00 0.00 0.00 54 1008.9
20260504004255 56 226 2.0 8.0 0.00 0.00 0.00 52 1008.8
20260504003055 56 202 2.0 6.0 0.00 0.00 0.00 53 1008.9
20260504001856 56 232 2.0 9.0 0.00 0.00 0.00 53 1008.8
20260504000659 56 243 2.0 8.0 0.00 0.00 0.00 54 1008.8
20260503235455 56 160 1.0 8.0 0.00 0.00 0.00 53 1008.8
20260503234255 56 233 2.0 5.0 0.00 0.00 0.00 52 1008.9
20260503233055 57 233 2.0 10.0 0.00 0.00 0.00 50 1008.9
20260503231855 57 227 1.0 9.0 0.00 0.00 0.00 50 1009.0
20260503230656 57 244 1.0 10.0 0.00 0.00 0.00 51 1009.0
20260503225455 57 195 3.0 12.0 0.00 0.00 0.00 51 1009.0
20260503224255 57 227 3.0 10.0 0.00 0.00 0.00 51 1009.0
20260503223055 57 193 2.0 12.0 0.00 0.00 0.00 52 1009.1
20260503221855 57 219 2.0 5.0 0.00 0.00 0.00 52 1009.3
20260503220655 57 233 2.0 10.0 0.00 0.00 0.00 52 1009.3
20260503215455 57 236 2.0 16.0 0.00 0.00 0.00 51 1009.5
20260503213055 59 230 1.0 6.0 0.00 0.00 0.00 51 1009.5
20260503211856 59 289 2.0 8.0 0.00 0.00 0.00 51 1009.4
20260503210656 58 239 4.0 13.0 0.00 0.00 0.00 51 1009.4
20260503203954 57 218 3.0 8.0 0.00 0.00 0.00 55 1009.6
20260503202755 57 221 2.0 9.0 0.00 0.00 0.00 55 1009.6
20260503201555 58 244 3.0 10.0 0.00 0.00 0.00 54 1009.8
20260503200355 59 226 2.0 7.0 0.00 0.00 0.00 56 1009.7
20260503195155 58 218 1.0 9.0 0.00 0.00 0.00 57 1010.0
20260503193955 58 158 2.0 7.0 0.00 0.00 0.00 57 1010.0
20260503192755 57 198 1.0 9.0 0.00 0.00 0.00 57 1010.2
20260503191555 57 233 3.0 9.0 0.00 0.00 0.00 58 1010.1
20260503190355 57 202 2.0 10.0 0.00 0.00 0.00 57 1010.3
20260503183356 56 203 1.0 9.0 0.00 0.00 0.00 60 1010.7
20260503182156 56 215 2.0 7.0 0.00 0.00 0.00 59 1010.9
20260503180956 56 229 2.0 9.0 0.00 0.00 0.00 60 1011.0
20260503175756 56 186 1.0 5.0 0.00 0.00 0.00 62 1011.1
20260503174556 54 215 2.0 9.0 0.00 0.00 0.00 61 1011.4
20260503173356 54 216 2.0 13.0 0.00 0.00 0.00 61 1011.4
20260503171427 55 228 2.0 7.0 0.00 0.00 0.00 60 1011.6
20260503170227 54 228 2.0 9.0 0.00 0.00 0.00 60 1011.8
20260503150227 52 252 2.0 6.0 0.00 0.00 0.00 63 1012.9
20260503140227 50 235 2.0 7.0 0.00 0.00 0.00 53 1013.4
20260503131027 45 0 0.0 2.0 0.00 0.00 0.00 65 1014.1